| time (UTC) | temp C | wind direction | speed KPH | gust KPH | rain 1hr cm | rain 24hr cm | rain mn cm | humidity % | barometer mb |
| 20260509064546 | 20 | 52 | 1.6 | 11.3 | 0.00 | 0.58 | 0.00 | 90 | 1011.2 |
| 20260509064034 | 20 | 27 | 6.4 | 12.9 | 0.00 | 0.58 | 0.00 | 90 | 1011.3 |
| 20260509063536 | 20 | 43 | 4.8 | 14.5 | 0.00 | 0.58 | 0.00 | 91 | 1011.2 |
| 20260509063053 | 20 | 340 | 6.4 | 14.5 | 0.00 | 0.58 | 0.00 | 91 | 1011.2 |
| 20260509062535 | 20 | 12 | 6.4 | 11.3 | 0.00 | 0.58 | 0.00 | 91 | 1011.3 |
| 20260509062035 | 20 | 348 | 3.2 | 8.0 | 0.00 | 0.58 | 0.00 | 92 | 1011.1 |
| 20260509061544 | 20 | 0 | 0.0 | 14.5 | 0.00 | 0.58 | 0.00 | 91 | 1010.5 |
| 20260509061034 | 20 | 227 | 1.6 | 14.5 | 0.00 | 0.58 | 0.00 | 91 | 1010.3 |
| 20260509060536 | 20 | 143 | 6.4 | 14.5 | 0.00 | 0.58 | 0.00 | 92 | 1009.8 |
| 20260509060043 | 19 | 162 | 4.8 | 11.3 | 0.00 | 0.58 | 0.00 | 92 | 1009.8 |
| 20260509055535 | 19 | 136 | 6.4 | 11.3 | 0.00 | 0.58 | 0.00 | 93 | 1009.6 |
| 20260509055033 | 19 | 156 | 6.4 | 9.7 | 0.00 | 0.58 | 0.00 | 93 | 1009.8 |
| 20260509054552 | 18 | 135 | 1.6 | 6.4 | 0.00 | 0.58 | 0.00 | 93 | 1010.0 |
| 20260509054034 | 18 | 143 | 0.0 | 6.4 | 0.00 | 0.58 | 0.00 | 93 | 1010.1 |
| 20260509053535 | 18 | 158 | 3.2 | 6.4 | 0.00 | 0.58 | 0.00 | 93 | 1010.2 |
| 20260509053048 | 18 | 147 | 3.2 | 6.4 | 0.00 | 0.58 | 0.00 | 93 | 1010.2 |
| 20260509052534 | 18 | 163 | 1.6 | 4.8 | 0.00 | 0.58 | 0.00 | 93 | 1010.5 |
| 20260509052035 | 18 | 0 | 0.0 | 3.2 | 0.00 | 0.58 | 0.00 | 92 | 1010.7 |
| 20260509051547 | 19 | 0 | 0.0 | 4.8 | 0.00 | 0.58 | 0.00 | 92 | 1010.6 |
| 20260509051034 | 19 | 255 | 1.6 | 4.8 | 0.00 | 0.58 | 0.00 | 92 | 1011.0 |
| 20260509050534 | 19 | 233 | 3.2 | 4.8 | 0.00 | 0.58 | 0.00 | 91 | 1010.7 |
| 20260509050057 | 19 | 0 | 0.0 | 4.8 | 0.00 | 0.58 | 0.00 | 91 | 1011.0 |
| 20260509045534 | 19 | 273 | 0.0 | 4.8 | 0.00 | 0.58 | 0.58 | 91 | 1010.9 |
| 20260509045034 | 19 | 281 | 3.2 | 4.8 | 0.00 | 0.58 | 0.58 | 91 | 1010.8 |
| 20260509044538 | 20 | 257 | 1.6 | 3.2 | 0.00 | 0.58 | 0.58 | 90 | 1010.6 |
| 20260509044034 | 20 | 261 | 0.0 | 3.2 | 0.00 | 0.58 | 0.58 | 90 | 1010.6 |
| 20260509043535 | 20 | 221 | 0.0 | 1.6 | 0.00 | 0.58 | 0.58 | 90 | 1010.5 |
| 20260509043046 | 20 | 0 | 0.0 | 1.6 | 0.00 | 0.58 | 0.58 | 89 | 1010.8 |
| 20260509042534 | 20 | 0 | 0.0 | 3.2 | 0.00 | 0.58 | 0.58 | 89 | 1010.5 |
| 20260509042034 | 20 | 234 | 0.0 | 3.2 | 0.00 | 0.58 | 0.58 | 88 | 1010.4 |
| 20260509041550 | 20 | 148 | 1.6 | 3.2 | 0.00 | 0.58 | 0.58 | 88 | 1010.2 |
| 20260509041035 | 20 | 148 | 1.6 | 3.2 | 0.03 | 0.58 | 0.58 | 88 | 1010.1 |
| 20260509040534 | 20 | 0 | 0.0 | 1.6 | 0.03 | 0.58 | 0.58 | 88 | 1010.2 |
| 20260509040047 | 20 | 160 | 0.0 | 1.6 | 0.03 | 0.58 | 0.58 | 88 | 1010.3 |
| 20260509035535 | 20 | 129 | 0.0 | 9.7 | 0.03 | 0.58 | 0.58 | 88 | 1010.2 |
| 20260509035034 | 20 | 0 | 0.0 | 9.7 | 0.03 | 0.58 | 0.58 | 88 | 1010.2 |
| 20260509034547 | 20 | 106 | 3.2 | 9.7 | 0.03 | 0.58 | 0.58 | 88 | 1009.8 |
| 20260509034034 | 20 | 122 | 1.6 | 9.7 | 0.03 | 0.58 | 0.58 | 88 | 1010.0 |
| 20260509033535 | 20 | 121 | 0.0 | 12.9 | 0.03 | 0.58 | 0.58 | 88 | 1010.4 |
| 20260509033052 | 20 | 148 | 4.8 | 12.9 | 0.03 | 0.58 | 0.58 | 88 | 1010.1 |
| 20260509032535 | 20 | 188 | 6.4 | 11.3 | 0.03 | 0.58 | 0.58 | 87 | 1010.1 |
| 20260509032037 | 20 | 129 | 4.8 | 8.0 | 0.03 | 0.58 | 0.58 | 86 | 1010.0 |
| 20260509031549 | 21 | 110 | 1.6 | 8.0 | 0.03 | 0.58 | 0.58 | 85 | 1010.2 |
| 20260509031034 | 21 | 144 | 4.8 | 8.0 | 0.00 | 0.56 | 0.56 | 83 | 1009.9 |
| 20260509030534 | 21 | 103 | 3.2 | 6.4 | 0.00 | 0.56 | 0.56 | 82 | 1010.1 |
| 20260509030041 | 21 | 136 | 3.2 | 4.8 | 0.00 | 0.56 | 0.56 | 81 | 1010.2 |
| 20260509025537 | 21 | 70 | 1.6 | 4.8 | 0.00 | 0.56 | 0.56 | 80 | 1010.6 |
| 20260509025034 | 21 | 50 | 3.2 | 4.8 | 0.00 | 0.56 | 0.56 | 80 | 1010.9 |
| 20260509024542 | 21 | 0 | 0.0 | 0.0 | 0.00 | 0.56 | 0.56 | 80 | 1010.9 |
| 20260509024035 | 21 | 0 | 0.0 | 1.6 | 0.00 | 0.56 | 0.56 | 80 | 1010.8 |
| 20260509023535 | 21 | 0 | 0.0 | 1.6 | 0.00 | 0.56 | 0.56 | 80 | 1010.7 |
| 20260509023038 | 21 | 0 | 0.0 | 4.8 | 0.00 | 0.56 | 0.56 | 81 | 1010.5 |
| 20260509022536 | 21 | 0 | 0.0 | 4.8 | 0.00 | 0.56 | 0.56 | 81 | 1010.3 |
| 20260509022035 | 21 | 0 | 0.0 | 4.8 | 0.00 | 0.56 | 0.56 | 80 | 1010.2 |
| 20260509021547 | 21 | 0 | 0.0 | 4.8 | 0.00 | 0.56 | 0.56 | 80 | 1010.0 |
| 20260509021034 | 21 | 0 | 0.0 | 6.4 | 0.00 | 0.56 | 0.56 | 80 | 1009.8 |
| 20260509020534 | 21 | 101 | 1.6 | 8.0 | 0.00 | 0.56 | 0.56 | 80 | 1009.6 |
| 20260509020038 | 21 | 123 | 1.6 | 8.0 | 0.00 | 0.56 | 0.56 | 79 | 1009.5 |
| 20260509015534 | 21 | 108 | 1.6 | 11.3 | 0.00 | 0.56 | 0.56 | 79 | 1009.4 |
| 20260509015035 | 21 | 122 | 4.8 | 11.3 | 0.00 | 0.56 | 0.56 | 79 | 1009.3 |
| 20260509014543 | 21 | 150 | 4.8 | 11.3 | 0.00 | 0.56 | 0.56 | 78 | 1009.1 |
| 20260509014031 | 21 | 152 | 6.4 | 11.3 | 0.00 | 0.56 | 0.56 | 78 | 1009.1 |
| 20260509013534 | 21 | 131 | 6.4 | 12.9 | 0.00 | 0.56 | 0.56 | 78 | 1009.2 |
| 20260509013046 | 22 | 158 | 4.8 | 12.9 | 0.00 | 0.56 | 0.56 | 77 | 1009.2 |
| 20260509012534 | 22 | 145 | 8.0 | 12.9 | 0.00 | 0.56 | 0.56 | 77 | 1009.2 |
| 20260509012036 | 22 | 153 | 4.8 | 11.3 | 0.00 | 0.56 | 0.56 | 77 | 1009.1 |
| 20260509011602 | 22 | 158 | 4.8 | 12.9 | 0.00 | 0.56 | 0.56 | 76 | 1009.1 |
| 20260509011035 | 22 | 162 | 6.4 | 14.5 | 0.00 | 0.56 | 0.56 | 76 | 1009.1 |
| 20260509010535 | 22 | 131 | 6.4 | 14.5 | 0.00 | 0.56 | 0.56 | 75 | 1009.1 |
| 20260509010041 | 22 | 141 | 3.2 | 11.3 | 0.00 | 0.56 | 0.56 | 75 | 1009.2 |
| 20260509005535 | 22 | 149 | 3.2 | 11.3 | 0.00 | 0.56 | 0.56 | 75 | 1009.1 |
| 20260509005036 | 22 | 219 | 4.8 | 11.3 | 0.00 | 0.56 | 0.56 | 75 | 1009.1 |
| 20260509004554 | 22 | 153 | 6.4 | 11.3 | 0.00 | 0.56 | 0.56 | 75 | 1009.0 |
| 20260509004035 | 22 | 148 | 6.4 | 14.5 | 0.00 | 0.56 | 0.56 | 75 | 1009.0 |
| 20260509003535 | 22 | 117 | 4.8 | 14.5 | 0.00 | 0.56 | 0.56 | 75 | 1009.0 |
| 20260509003050 | 23 | 143 | 8.0 | 24.1 | 0.00 | 0.56 | 0.56 | 75 | 1008.8 |
| 20260509002534 | 23 | 155 | 12.9 | 24.1 | 0.00 | 0.56 | 0.56 | 74 | 1008.7 |
| 20260509002035 | 23 | 164 | 11.3 | 20.9 | 0.00 | 0.56 | 0.56 | 74 | 1008.7 |
| 20260509001546 | 23 | 146 | 9.7 | 22.5 | 0.00 | 0.56 | 0.56 | 74 | 1008.7 |
| 20260509001035 | 23 | 170 | 11.3 | 24.1 | 0.00 | 0.56 | 0.56 | 74 | 1008.6 |
| 20260509000536 | 23 | 147 | 12.9 | 27.4 | 0.00 | 0.56 | 0.56 | 74 | 1008.6 |
| 20260509000048 | 23 | 169 | 14.5 | 27.4 | 0.00 | 0.56 | 0.56 | 74 | 1008.6 |
| 20260508235534 | 23 | 155 | 12.9 | 25.7 | 0.00 | 0.56 | 0.56 | 73 | 1008.6 |
| 20260508235037 | 23 | 153 | 12.9 | 22.5 | 0.00 | 0.56 | 0.56 | 72 | 1008.6 |
| 20260508234542 | 23 | 137 | 14.5 | 22.5 | 0.00 | 0.56 | 0.56 | 72 | 1008.7 |
| 20260508234035 | 24 | 143 | 9.7 | 19.3 | 0.00 | 0.56 | 0.56 | 72 | 1008.7 |
| 20260508233535 | 24 | 129 | 9.7 | 19.3 | 0.00 | 0.56 | 0.56 | 71 | 1008.8 |
| 20260508233041 | 24 | 167 | 9.7 | 16.1 | 0.00 | 0.56 | 0.56 | 70 | 1008.7 |
| 20260508232536 | 25 | 143 | 9.7 | 14.5 | 0.00 | 0.56 | 0.56 | 70 | 1008.7 |
| 20260508232035 | 24 | 178 | 9.7 | 16.1 | 0.00 | 0.56 | 0.56 | 70 | 1008.8 |
| 20260508231545 | 25 | 146 | 9.7 | 22.5 | 0.00 | 0.56 | 0.56 | 69 | 1008.7 |
| 20260508231033 | 25 | 188 | 11.3 | 22.5 | 0.00 | 0.56 | 0.56 | 69 | 1008.9 |
| 20260508230535 | 25 | 173 | 9.7 | 22.5 | 0.00 | 0.56 | 0.56 | 67 | 1008.9 |
| 20260508230040 | 25 | 167 | 6.4 | 20.9 | 0.00 | 0.56 | 0.56 | 67 | 1009.0 |
| 20260508225533 | 25 | 220 | 9.7 | 20.9 | 0.00 | 0.56 | 0.56 | 67 | 1009.0 |
| 20260508225034 | 25 | 154 | 9.7 | 20.9 | 0.00 | 0.56 | 0.56 | 66 | 1008.9 |
| 20260508224602 | 25 | 200 | 9.7 | 19.3 | 0.00 | 0.56 | 0.56 | 66 | 1008.8 |
| 20260508224035 | 25 | 179 | 9.7 | 19.3 | 0.00 | 0.56 | 0.56 | 64 | 1008.9 |
| 20260508223536 | 25 | 188 | 9.7 | 17.7 | 0.00 | 0.56 | 0.56 | 65 | 1008.9 |
| 20260508223045 | 25 | 195 | 9.7 | 17.7 | 0.00 | 0.56 | 0.56 | 65 | 1008.9 |
| 20260508222535 | 25 | 110 | 9.7 | 20.9 | 0.00 | 0.56 | 0.56 | 65 | 1008.9 |
| 20260508222034 | 25 | 151 | 12.9 | 20.9 | 0.00 | 0.56 | 0.56 | 64 | 1008.9 |
| 20260508221552 | 26 | 158 | 8.0 | 19.3 | 0.00 | 0.56 | 0.56 | 62 | 1008.8 |
| 20260508221034 | 26 | 229 | 11.3 | 19.3 | 0.00 | 0.56 | 0.56 | 65 | 1008.7 |
| 20260508220536 | 26 | 156 | 11.3 | 22.5 | 0.00 | 0.56 | 0.56 | 63 | 1008.7 |
| 20260508220043 | 26 | 145 | 8.0 | 22.5 | 0.00 | 0.56 | 0.56 | 64 | 1008.6 |
| 20260508215534 | 26 | 203 | 12.9 | 22.5 | 0.00 | 0.56 | 0.56 | 64 | 1008.7 |
| 20260508215036 | 26 | 110 | 6.4 | 20.9 | 0.00 | 0.56 | 0.56 | 64 | 1008.7 |
| 20260508214549 | 26 | 160 | 11.3 | 20.9 | 0.00 | 0.56 | 0.56 | 65 | 1008.7 |
| 20260508214034 | 26 | 132 | 9.7 | 25.7 | 0.00 | 0.56 | 0.56 | 64 | 1008.8 |
| 20260508213534 | 26 | 145 | 12.9 | 25.7 | 0.00 | 0.56 | 0.56 | 64 | 1008.7 |
| 20260508213045 | 26 | 172 | 8.0 | 19.3 | 0.00 | 0.56 | 0.56 | 64 | 1008.9 |
| 20260508212533 | 26 | 155 | 9.7 | 24.1 | 0.00 | 0.56 | 0.56 | 64 | 1009.1 |
| 20260508212035 | 26 | 179 | 11.3 | 24.1 | 0.00 | 0.56 | 0.56 | 66 | 1009.3 |
| 20260508211548 | 26 | 155 | 11.3 | 24.1 | 0.00 | 0.56 | 0.56 | 65 | 1009.3 |
| 20260508211035 | 26 | 128 | 12.9 | 27.4 | 0.00 | 0.56 | 0.56 | 65 | 1009.4 |
| 20260508210533 | 26 | 165 | 12.9 | 27.4 | 0.00 | 0.56 | 0.56 | 65 | 1009.5 |
| 20260508210043 | 25 | 221 | 11.3 | 25.7 | 0.00 | 0.56 | 0.56 | 65 | 1009.7 |
| 20260508205536 | 25 | 166 | 12.9 | 22.5 | 0.00 | 0.56 | 0.56 | 65 | 1009.7 |
| 20260508205035 | 26 | 148 | 11.3 | 24.1 | 0.00 | 0.56 | 0.56 | 64 | 1010.0 |
| 20260508204548 | 25 | 167 | 11.3 | 27.4 | 0.00 | 0.56 | 0.56 | 63 | 1010.0 |
| 20260508204034 | 26 | 177 | 14.5 | 27.4 | 0.00 | 0.56 | 0.56 | 63 | 1010.1 |
| 20260508203534 | 26 | 195 | 9.7 | 25.7 | 0.00 | 0.56 | 0.56 | 62 | 1010.2 |
| 20260508203039 | 26 | 221 | 9.7 | 25.7 | 0.00 | 0.56 | 0.56 | 62 | 1010.1 |
| 20260508202532 | 26 | 98 | 6.4 | 20.9 | 0.00 | 0.56 | 0.56 | 62 | 1010.2 |
| 20260508202035 | 25 | 187 | 9.7 | 20.9 | 0.00 | 0.56 | 0.56 | 62 | 1010.4 |
| 20260508201545 | 26 | 161 | 4.8 | 17.7 | 0.00 | 0.56 | 0.56 | 62 | 1010.6 |
| 20260508201035 | 25 | 233 | 8.0 | 17.7 | 0.00 | 0.56 | 0.56 | 63 | 1010.7 |
| 20260508200535 | 25 | 185 | 6.4 | 17.7 | 0.00 | 0.56 | 0.56 | 63 | 1010.7 |
| 20260508200053 | 25 | 161 | 8.0 | 17.7 | 0.00 | 0.56 | 0.56 | 62 | 1010.7 |
| 20260508195535 | 25 | 155 | 6.4 | 12.9 | 0.00 | 0.56 | 0.56 | 63 | 1010.8 |
| 20260508195034 | 25 | 229 | 4.8 | 19.3 | 0.00 | 0.56 | 0.56 | 64 | 1010.9 |
| 20260508194544 | 24 | 192 | 8.0 | 19.3 | 0.00 | 0.56 | 0.56 | 65 | 1010.9 |
| 20260508194034 | 25 | 170 | 8.0 | 19.3 | 0.00 | 0.56 | 0.56 | 63 | 1011.0 |
| 20260508193535 | 25 | 225 | 11.3 | 19.3 | 0.00 | 0.56 | 0.56 | 63 | 1011.0 |
| 20260508193050 | 25 | 245 | 6.4 | 17.7 | 0.00 | 0.56 | 0.56 | 61 | 1010.9 |
| 20260508192535 | 25 | 199 | 6.4 | 17.7 | 0.00 | 0.56 | 0.56 | 61 | 1010.9 |
| 20260508192035 | 25 | 238 | 4.8 | 16.1 | 0.00 | 0.56 | 0.56 | 62 | 1010.9 |
| 20260508191545 | 25 | 129 | 6.4 | 19.3 | 0.00 | 0.56 | 0.56 | 61 | 1011.0 |
| 20260508191034 | 25 | 197 | 9.7 | 19.3 | 0.00 | 0.56 | 0.56 | 63 | 1011.0 |
| 20260508190535 | 25 | 125 | 9.7 | 19.3 | 0.00 | 0.56 | 0.56 | 61 | 1011.0 |
| 20260508190047 | 26 | 130 | 8.0 | 17.7 | 0.00 | 0.56 | 0.56 | 62 | 1011.1 |
| 20260508185538 | 25 | 176 | 8.0 | 16.1 | 0.00 | 0.56 | 0.56 | 59 | 1011.0 |
| 20260508185034 | 25 | 192 | 9.7 | 14.5 | 0.00 | 0.56 | 0.56 | 61 | 1011.2 |
| 20260508184546 | 25 | 0 | 4.8 | 14.5 | 0.00 | 0.56 | 0.56 | 61 | 1011.1 |
| 20260508184034 | 25 | 146 | 4.8 | 19.3 | 0.00 | 0.56 | 0.56 | 64 | 1011.2 |
| 20260508183535 | 24 | 217 | 11.3 | 19.3 | 0.00 | 0.56 | 0.56 | 64 | 1011.5 |
| 20260508183059 | 23 | 142 | 8.0 | 14.5 | 0.00 | 0.56 | 0.56 | 64 | 1011.5 |
| 20260508182535 | 23 | 140 | 8.0 | 14.5 | 0.00 | 0.56 | 0.56 | 66 | 1011.5 |
| 20260508182039 | 23 | 117 | 6.4 | 19.3 | 0.00 | 0.56 | 0.56 | 65 | 1011.7 |
| 20260508181550 | 23 | 120 | 9.7 | 19.3 | 0.00 | 0.56 | 0.56 | 68 | 1011.9 |
| 20260508181038 | 23 | 165 | 6.4 | 11.3 | 0.00 | 0.56 | 0.56 | 67 | 1011.9 |
| 20260508180535 | 23 | 148 | 4.8 | 17.7 | 0.00 | 0.56 | 0.56 | 65 | 1011.9 |
| 20260508180040 | 23 | 125 | 9.7 | 17.7 | 0.00 | 0.56 | 0.56 | 63 | 1012.0 |
| 20260508175535 | 23 | 210 | 3.2 | 12.9 | 0.00 | 0.56 | 0.56 | 64 | 1012.2 |
| 20260508175035 | 23 | 149 | 4.8 | 11.3 | 0.00 | 0.56 | 0.56 | 67 | 1012.3 |
| 20260508174545 | 23 | 87 | 6.4 | 11.3 | 0.00 | 0.56 | 0.56 | 66 | 1012.4 |
| 20260508174036 | 23 | 75 | 4.8 | 11.3 | 0.00 | 0.56 | 0.56 | 67 | 1012.5 |
| 20260508173535 | 22 | 156 | 4.8 | 12.9 | 0.00 | 0.56 | 0.56 | 67 | 1012.9 |
| 20260508173046 | 22 | 87 | 4.8 | 12.9 | 0.00 | 0.56 | 0.56 | 69 | 1012.9 |
| 20260508172532 | 22 | 142 | 6.4 | 14.5 | 0.00 | 0.56 | 0.56 | 71 | 1013.1 |
| 20260508172034 | 22 | 131 | 4.8 | 14.5 | 0.00 | 0.56 | 0.56 | 70 | 1013.2 |
| 20260508171550 | 21 | 122 | 9.7 | 14.5 | 0.00 | 0.56 | 0.56 | 72 | 1013.3 |
| 20260508171037 | 21 | 195 | 8.0 | 12.9 | 0.00 | 0.56 | 0.56 | 71 | 1013.4 |
| 20260508170534 | 21 | 112 | 6.4 | 12.9 | 0.00 | 0.56 | 0.56 | 74 | 1013.4 |
| 20260508170041 | 21 | 129 | 6.4 | 16.1 | 0.00 | 0.56 | 0.56 | 73 | 1013.5 |
| 20260508165534 | 21 | 231 | 6.4 | 16.1 | 0.00 | 0.56 | 0.56 | 74 | 1013.8 |
| 20260508165035 | 21 | 167 | 4.8 | 12.9 | 0.00 | 0.56 | 0.56 | 74 | 1013.9 |
| 20260508164541 | 21 | 262 | 3.2 | 11.3 | 0.00 | 0.56 | 0.56 | 76 | 1013.9 |
| 20260508164035 | 20 | 135 | 4.8 | 11.3 | 0.00 | 0.56 | 0.56 | 79 | 1014.0 |
| 20260508163531 | 20 | 138 | 4.8 | 11.3 | 0.00 | 0.56 | 0.56 | 79 | 1014.1 |
| 20260508163049 | 19 | 157 | 4.8 | 9.7 | 0.00 | 0.56 | 0.56 | 81 | 1014.1 |
| 20260508162534 | 19 | 177 | 4.8 | 9.7 | 0.00 | 0.56 | 0.56 | 80 | 1014.1 |
| 20260508162038 | 19 | 146 | 1.6 | 11.3 | 0.00 | 0.56 | 0.56 | 84 | 1014.1 |
| 20260508161547 | 18 | 179 | 1.6 | 11.3 | 0.00 | 0.56 | 0.56 | 84 | 1014.1 |
| 20260508161036 | 18 | 139 | 4.8 | 8.0 | 0.00 | 0.56 | 0.56 | 84 | 1014.2 |
| 20260508160534 | 18 | 169 | 1.6 | 11.3 | 0.00 | 0.56 | 0.56 | 85 | 1014.2 |
| 20260508160047 | 18 | 171 | 3.2 | 14.5 | 0.00 | 0.56 | 0.56 | 85 | 1014.3 |
| 20260508155535 | 18 | 172 | 6.4 | 14.5 | 0.05 | 0.56 | 0.56 | 85 | 1014.2 |
| 20260508155035 | 18 | 208 | 8.0 | 14.5 | 0.05 | 0.56 | 0.56 | 84 | 1014.4 |
| 20260508154542 | 18 | 201 | 4.8 | 11.3 | 0.05 | 0.56 | 0.56 | 85 | 1014.5 |
| 20260508154034 | 18 | 195 | 3.2 | 6.4 | 0.05 | 0.56 | 0.56 | 85 | 1014.5 |
| 20260508153532 | 18 | 148 | 1.6 | 4.8 | 0.08 | 0.56 | 0.56 | 86 | 1014.4 |
| 20260508153048 | 17 | 169 | 0.0 | 4.8 | 0.08 | 0.56 | 0.56 | 87 | 1014.5 |
| 20260508152537 | 17 | 158 | 1.6 | 4.8 | 0.08 | 0.56 | 0.56 | 87 | 1014.5 |
| 20260508152031 | 17 | 138 | 1.6 | 8.0 | 0.08 | 0.56 | 0.56 | 88 | 1014.5 |
| 20260508151546 | 17 | 0 | 1.6 | 9.7 | 0.08 | 0.56 | 0.56 | 87 | 1014.5 |
| 20260508151033 | 17 | 108 | 4.8 | 9.7 | 0.08 | 0.56 | 0.56 | 86 | 1014.5 |
| 20260508150533 | 17 | 139 | 6.4 | 14.5 | 0.08 | 0.56 | 0.56 | 85 | 1014.4 |
| 20260508145537 | 17 | 139 | 6.4 | 16.1 | 0.03 | 0.51 | 0.51 | 82 | 1014.8 |
| 20260508145034 | 17 | 215 | 9.7 | 17.7 | 0.03 | 0.51 | 0.51 | 83 | 1014.7 |
| 20260508144548 | 17 | 117 | 4.8 | 17.7 | 0.03 | 0.51 | 0.51 | 89 | 1014.5 |
| 20260508144034 | 17 | 146 | 8.0 | 16.1 | 0.00 | 0.48 | 0.48 | 89 | 1014.6 |
| 20260508143534 | 17 | 126 | 4.8 | 11.3 | 0.00 | 0.48 | 0.48 | 91 | 1014.6 |
| 20260508143047 | 17 | 134 | 4.8 | 8.0 | 0.00 | 0.48 | 0.48 | 91 | 1014.7 |
| 20260508142534 | 16 | 150 | 4.8 | 8.0 | 0.00 | 0.48 | 0.48 | 92 | 1014.7 |
| 20260508142038 | 16 | 124 | 3.2 | 4.8 | 0.00 | 0.48 | 0.48 | 92 | 1014.6 |
| 20260508141547 | 16 | 139 | 0.0 | 4.8 | 0.00 | 0.48 | 0.48 | 92 | 1015.0 |
| 20260508141035 | 16 | 0 | 0.0 | 4.8 | 0.00 | 0.48 | 0.48 | 93 | 1015.0 |
| 20260508140534 | 16 | 95 | 1.6 | 4.8 | 0.00 | 0.48 | 0.48 | 93 | 1015.1 |
| 20260508140046 | 16 | 0 | 1.6 | 3.2 | 0.00 | 0.48 | 0.48 | 93 | 1015.2 |
| 20260508135536 | 16 | 72 | 0.0 | 1.6 | 0.00 | 0.48 | 0.48 | 93 | 1015.1 |
| 20260508135033 | 16 | 106 | 0.0 | 3.2 | 0.00 | 0.48 | 0.48 | 94 | 1015.3 |
| 20260508134546 | 16 | 0 | 0.0 | 3.2 | 0.03 | 0.48 | 0.48 | 94 | 1015.4 |
| 20260508134035 | 16 | 0 | 1.6 | 9.7 | 0.03 | 0.48 | 0.48 | 94 | 1015.3 |
| 20260508133531 | 15 | 0 | 1.6 | 9.7 | 0.03 | 0.48 | 0.48 | 94 | 1015.0 |
| 20260508133044 | 15 | 144 | 3.2 | 6.4 | 0.03 | 0.48 | 0.48 | 94 | 1014.9 |
| 20260508132536 | 15 | 138 | 0.0 | 4.8 | 0.03 | 0.48 | 0.48 | 94 | 1015.0 |
| 20260508132034 | 15 | 110 | 1.6 | 4.8 | 0.03 | 0.48 | 0.48 | 94 | 1014.9 |
| 20260508131540 | 15 | 0 | 0.0 | 4.8 | 0.03 | 0.48 | 0.48 | 93 | 1015.3 |
| 20260508131035 | 15 | 0 | 1.6 | 6.4 | 0.03 | 0.48 | 0.48 | 94 | 1015.2 |
| 20260508130537 | 15 | 129 | 3.2 | 6.4 | 0.03 | 0.48 | 0.48 | 94 | 1014.7 |
| 20260508130038 | 15 | 115 | 0.0 | 6.4 | 0.03 | 0.48 | 0.48 | 94 | 1014.8 |
| 20260508125535 | 15 | 0 | 1.6 | 6.4 | 0.05 | 0.48 | 0.48 | 93 | 1015.0 |
| 20260508125035 | 15 | 152 | 4.8 | 6.4 | 0.08 | 0.48 | 0.48 | 93 | 1015.2 |
| 20260508124548 | 15 | 148 | 1.6 | 4.8 | 0.05 | 0.46 | 0.46 | 93 | 1015.3 |
| 20260508124035 | 14 | 124 | 0.0 | 3.2 | 0.05 | 0.46 | 0.46 | 93 | 1015.2 |
| 20260508123535 | 14 | 0 | 1.6 | 3.2 | 0.05 | 0.46 | 0.46 | 93 | 1015.4 |
| 20260508123039 | 14 | 0 | 0.0 | 4.8 | 0.05 | 0.46 | 0.46 | 93 | 1015.6 |
| 20260508122535 | 14 | 78 | 0.0 | 4.8 | 0.05 | 0.46 | 0.46 | 92 | 1015.4 |
| 20260508122031 | 14 | 277 | 1.6 | 3.2 | 0.05 | 0.46 | 0.46 | 92 | 1016.0 |
| 20260508121547 | 14 | 0 | 0.0 | 3.2 | 0.05 | 0.46 | 0.46 | 92 | 1015.3 |
| 20260508121034 | 14 | 0 | 0.0 | 4.8 | 0.05 | 0.46 | 0.46 | 92 | 1015.6 |
| 20260508120534 | 14 | 0 | 3.2 | 8.0 | 0.05 | 0.46 | 0.46 | 91 | 1015.6 |
| 20260508120048 | 14 | 226 | 1.6 | 8.0 | 0.05 | 0.46 | 0.46 | 91 | 1015.4 |
| 20260508115533 | 15 | 98 | 3.2 | 6.4 | 0.03 | 0.43 | 0.43 | 91 | 1014.9 |
| 20260508115034 | 15 | 248 | 3.2 | 6.4 | 0.00 | 0.41 | 0.41 | 90 | 1016.1 |
| 20260508114541 | 15 | 0 | 0.0 | 11.3 | 0.00 | 0.41 | 0.41 | 90 | 1015.3 |
| 20260508114035 | 15 | 0 | 1.6 | 14.5 | 0.00 | 0.41 | 0.41 | 91 | 1015.1 |
| 20260508113535 | 15 | 160 | 3.2 | 14.5 | 0.00 | 0.41 | 0.41 | 91 | 1014.6 |
| 20260508113123 | 15 | 140 | 8.0 | 14.5 | 0.03 | 0.41 | 0.41 | 92 | 1014.4 |
| 20260508112534 | 15 | 167 | 4.8 | 11.3 | 0.08 | 0.41 | 0.41 | 93 | 1014.1 |
| 20260508112034 | 15 | 172 | 6.4 | 14.5 | 0.23 | 0.41 | 0.41 | 93 | 1014.3 |
| 20260508111546 | 15 | 158 | 4.8 | 14.5 | 0.41 | 0.41 | 0.41 | 92 | 1014.2 |
| 20260508111030 | 15 | 171 | 6.4 | 12.9 | 0.41 | 0.41 | 0.41 | 93 | 1014.6 |
| 20260508110535 | 15 | 186 | 8.0 | 12.9 | 0.41 | 0.41 | 0.41 | 93 | 1014.9 |
| 20260508110045 | 15 | 193 | 3.2 | 9.7 | 0.41 | 0.41 | 0.41 | 92 | 1015.0 |
| 20260508105535 | 15 | 235 | 3.2 | 9.7 | 0.41 | 0.41 | 0.41 | 92 | 1015.2 |
| 20260508105034 | 15 | 209 | 6.4 | 14.5 | 0.41 | 0.41 | 0.41 | 92 | 1014.7 |
| 20260508104552 | 15 | 134 | 3.2 | 17.7 | 0.41 | 0.41 | 0.41 | 92 | 1014.1 |
| 20260508104035 | 15 | 191 | 6.4 | 17.7 | 0.41 | 0.41 | 0.41 | 92 | 1015.0 |
| 20260508103535 | 15 | 142 | 9.7 | 17.7 | 0.41 | 0.41 | 0.41 | 92 | 1014.7 |
| 20260508103042 | 15 | 247 | 4.8 | 12.9 | 0.38 | 0.38 | 0.38 | 93 | 1014.7 |
| 20260508102534 | 15 | 182 | 6.4 | 12.9 | 0.33 | 0.33 | 0.33 | 92 | 1014.4 |
| 20260508102035 | 15 | 148 | 1.6 | 4.8 | 0.15 | 0.15 | 0.15 | 92 | 1014.4 |
| 20260508101543 | 15 | 0 | 0.0 | 4.8 | 0.00 | 0.00 | 0.00 | 91 | 1014.6 |
| 20260508101031 | 15 | 100 | 3.2 | 4.8 | 0.00 | 0.00 | 0.00 | 91 | 1013.9 |
| 20260508100534 | 15 | 111 | 0.0 | 6.4 | 0.00 | 0.00 | 0.00 | 91 | 1014.2 |
| 20260508100042 | 15 | 0 | 0.0 | 6.4 | 0.00 | 0.00 | 0.00 | 91 | 1014.1 |
| 20260508095535 | 15 | 104 | 3.2 | 6.4 | 0.00 | 0.00 | 0.00 | 90 | 1013.8 |
| 20260508095036 | 15 | 60 | 0.0 | 1.6 | 0.00 | 0.00 | 0.00 | 90 | 1014.1 |
| 20260508094544 | 15 | 59 | 0.0 | 1.6 | 0.00 | 0.00 | 0.00 | 90 | 1014.2 |
| 20260508094035 | 15 | 0 | 0.0 | 1.6 | 0.00 | 0.00 | 0.00 | 89 | 1014.3 |
| 20260508093535 | 15 | 0 | 0.0 | 3.2 | 0.00 | 0.00 | 0.00 | 89 | 1014.1 |
| 20260508093043 | 15 | 0 | 0.0 | 3.2 | 0.00 | 0.00 | 0.00 | 88 | 1014.1 |
| 20260508092535 | 15 | 102 | 0.0 | 6.4 | 0.00 | 0.00 | 0.00 | 88 | 1013.9 |
| 20260508092034 | 15 | 117 | 0.0 | 6.4 | 0.00 | 0.00 | 0.00 | 88 | 1014.1 |
| 20260508091549 | 15 | 110 | 1.6 | 8.0 | 0.00 | 0.00 | 0.00 | 88 | 1014.2 |
| 20260508091035 | 15 | 180 | 0.0 | 8.0 | 0.00 | 0.00 | 0.00 | 88 | 1014.4 |
| 20260508090535 | 15 | 113 | 4.8 | 8.0 | 0.00 | 0.00 | 0.00 | 88 | 1014.3 |
| 20260508090046 | 15 | 158 | 0.0 | 3.2 | 0.00 | 0.00 | 0.00 | 88 | 1014.5 |
| 20260508085534 | 15 | 0 | 0.0 | 3.2 | 0.00 | 0.00 | 0.00 | 88 | 1014.4 |
| 20260508085034 | 15 | 124 | 0.0 | 3.2 | 0.00 | 0.00 | 0.00 | 88 | 1014.3 |
| 20260508084545 | 15 | 231 | 0.0 | 4.8 | 0.00 | 0.00 | 0.00 | 87 | 1014.8 |
| 20260508084035 | 15 | 0 | 0.0 | 11.3 | 0.00 | 0.00 | 0.00 | 87 | 1014.6 |
| 20260508083535 | 15 | 148 | 3.2 | 11.3 | 0.00 | 0.00 | 0.00 | 87 | 1014.5 |
| 20260508083039 | 15 | 152 | 6.4 | 11.3 | 0.00 | 0.00 | 0.00 | 87 | 1014.6 |
| 20260508082535 | 15 | 184 | 1.6 | 6.4 | 0.00 | 0.00 | 0.00 | 87 | 1015.1 |
| 20260508082034 | 15 | 140 | 0.0 | 3.2 | 0.00 | 0.00 | 0.00 | 87 | 1014.8 |
| 20260508081542 | 15 | 0 | 0.0 | 11.3 | 0.00 | 0.00 | 0.00 | 87 | 1014.8 |
| 20260508081035 | 15 | 279 | 1.6 | 11.3 | 0.00 | 0.00 | 0.00 | 87 | 1015.1 |
| 20260508080535 | 15 | 124 | 6.4 | 11.3 | 0.00 | 0.00 | 0.00 | 87 | 1014.5 |
| 20260508080043 | 15 | 193 | 0.0 | 3.2 | 0.00 | 0.00 | 0.00 | 86 | 1015.2 |
| 20260508075535 | 15 | 240 | 0.0 | 1.6 | 0.00 | 0.00 | 0.00 | 86 | 1015.5 |
| 20260508075034 | 15 | 0 | 0.0 | 4.8 | 0.00 | 0.00 | 0.00 | 86 | 1015.3 |
| 20260508074542 | 15 | 0 | 0.0 | 4.8 | 0.00 | 0.00 | 0.00 | 86 | 1015.7 |
| 20260508074035 | 15 | 236 | 0.0 | 3.2 | 0.00 | 0.00 | 0.00 | 86 | 1015.7 |
| 20260508073536 | 15 | 0 | 0.0 | 1.6 | 0.00 | 0.00 | 0.00 | 86 | 1015.4 |
| 20260508073048 | 15 | 0 | 0.0 | 1.6 | 0.00 | 0.00 | 0.00 | 86 | 1015.1 |
| 20260508072534 | 15 | 110 | 0.0 | 1.6 | 0.00 | 0.00 | 0.00 | 86 | 1015.1 |
| 20260508072035 | 15 | 149 | 0.0 | 1.6 | 0.00 | 0.00 | 0.00 | 87 | 1015.2 |
| 20260508071546 | 15 | 0 | 0.0 | 1.6 | 0.00 | 0.00 | 0.00 | 87 | 1015.5 |
| 20260508071035 | 15 | 108 | 0.0 | 3.2 | 0.00 | 0.00 | 0.00 | 87 | 1015.3 |
| 20260508070535 | 15 | 0 | 0.0 | 3.2 | 0.00 | 0.00 | 0.00 | 88 | 1015.6 |
| 20260508070048 | 15 | 156 | 0.0 | 3.2 | 0.00 | 0.00 | 0.00 | 88 | 1015.8 |
| 20260508065535 | 15 | 0 | 0.0 | 1.6 | 0.00 | 0.00 | 0.00 | 88 | 1015.9 |
| 20260508065035 | 15 | 103 | 0.0 | 1.6 | 0.00 | 0.00 | 0.00 | 88 | 1015.9 |